RYR687L LIMC-LICC

Flight info

Callsign RYR687L
Flight time 1h 38m
Altitude 37000
Route ROBAS DCT BEROK DCT TINKU DCT LURON DCT BEKIV DCT ENEPA M871 LIBRO
Aircraft B738/M-SDE2E3FGHIRWXY/LB1

Departure

Time 2026-05-06 19:11
Airport Milan Malpensa International Airport (LIMC)

Arrival

Time 2026-05-06 20:49
Airport Catania-Fontanarossa Airport (LICC)
Time Latitude Longitude Altitude Speed Heading
2026-05-06 18:33 45.62524 8.71531 726 ft 0 kts 168°
2026-05-06 18:50 45.62537 8.71527 726 ft 2 kts 168°
2026-05-06 18:50 45.62553 8.71522 727 ft 2 kts 169°
2026-05-06 18:50 45.62569 8.71518 727 ft 2 kts 170°
2026-05-06 18:51 45.62585 8.71514 727 ft 2 kts 170°
2026-05-06 18:51 45.62601 8.71510 727 ft 2 kts 167°
2026-05-06 18:51 45.62612 8.71504 728 ft 1 kts 136°
2026-05-06 18:51 45.62613 8.71504 728 ft 0 kts 135°
2026-05-06 18:53 45.62611 8.71510 726 ft 0 kts 118°
2026-05-06 18:53 45.62611 8.71511 728 ft 0 kts 112°
2026-05-06 18:54 45.62607 8.71533 728 ft 4 kts 97°
2026-05-06 18:54 45.62609 8.71548 729 ft 0 kts 79°
2026-05-06 18:56 45.62609 8.71550 729 ft 0 kts 79°
2026-05-06 18:56 45.62609 8.71551 729 ft 1 kts 79°
2026-05-06 18:57 45.62612 8.71572 727 ft 4 kts 79°
2026-05-06 18:57 45.62619 8.71627 727 ft 7 kts 79°
2026-05-06 18:57 45.62631 8.71717 727 ft 11 kts 79°
2026-05-06 18:57 45.62633 8.71818 727 ft 10 kts 122°
2026-05-06 18:58 45.62568 8.71857 727 ft 11 kts 170°
2026-05-06 18:58 45.62482 8.71879 724 ft 14 kts 169°
2026-05-06 18:58 45.62370 8.71910 724 ft 19 kts 169°
2026-05-06 18:58 45.62226 8.71950 722 ft 23 kts 169°
2026-05-06 18:59 45.62062 8.71996 716 ft 24 kts 169°
2026-05-06 18:59 45.61902 8.72042 716 ft 23 kts 168°
2026-05-06 18:59 45.61748 8.72083 700 ft 22 kts 169°
2026-05-06 18:59 45.61598 8.72124 697 ft 22 kts 169°
2026-05-06 19:00 45.61443 8.72168 702 ft 24 kts 169°
2026-05-06 19:00 45.61273 8.72215 696 ft 26 kts 169°
2026-05-06 19:00 45.61091 8.72265 690 ft 27 kts 169°
2026-05-06 19:00 45.60965 8.72300 692 ft 28 kts 169°
2026-05-06 19:01 45.60718 8.72369 686 ft 22 kts 169°
2026-05-06 19:01 45.60632 8.72522 684 ft 21 kts 95°
2026-05-06 19:01 45.60618 8.72730 683 ft 21 kts 96°
2026-05-06 19:01 45.60603 8.72932 683 ft 20 kts 96°
2026-05-06 19:02 45.60588 8.73128 682 ft 20 kts 96°
2026-05-06 19:02 45.60649 8.73282 683 ft 19 kts 27°
2026-05-06 19:02 45.60769 8.73353 683 ft 18 kts 21°
2026-05-06 19:02 45.60887 8.73406 687 ft 18 kts
2026-05-06 19:03 45.61006 8.73380 690 ft 17 kts 349°
2026-05-06 19:03 45.61079 8.73359 687 ft 5 kts 348°
2026-05-06 19:03 45.61114 8.73349 691 ft 5 kts 348°
2026-05-06 19:03 45.61156 8.73337 691 ft 7 kts 348°
2026-05-06 19:04 45.61220 8.73320 694 ft 13 kts 349°
2026-05-06 19:04 45.61333 8.73289 697 ft 18 kts 349°
2026-05-06 19:04 45.61443 8.73259 693 ft 14 kts 349°
2026-05-06 19:04 45.61488 8.73247 697 ft 3 kts 349°
2026-05-06 19:05 45.61491 8.73246 693 ft 0 kts 349°
2026-05-06 19:05 45.61498 8.73244 696 ft 3 kts 348°
2026-05-06 19:05 45.61544 8.73231 699 ft 10 kts 348°
2026-05-06 19:05 45.61607 8.73249 698 ft 10 kts 48°
2026-05-06 19:06 45.61627 8.73340 703 ft 10 kts 78°
2026-05-06 19:06 45.61634 8.73422 698 ft 1 kts 100°
2026-05-06 19:06 45.61634 8.73423 698 ft 0 kts 101°
2026-05-06 19:09 45.61611 8.73486 694 ft 14 kts 124°
2026-05-06 19:09 45.61594 8.73664 695 ft 20 kts 70°
2026-05-06 19:10 45.61711 8.73716 694 ft 19 kts 349°
2026-05-06 19:10 45.61972 8.73643 712 ft 70 kts 349°
2026-05-06 19:10 45.62665 8.73456 724 ft 131 kts 349°
2026-05-06 19:10 45.63726 8.73151 800 ft 176 kts 351°
2026-05-06 19:11 45.64924 8.72804 1566 ft 171 kts 349°
2026-05-06 19:11 45.66123 8.72853 2238 ft 177 kts 26°
2026-05-06 19:11 45.67008 8.74041 2776 ft 187 kts 62°
2026-05-06 19:11 45.67517 8.75861 3208 ft 203 kts 72°
2026-05-06 19:12 45.68018 8.77796 3710 ft 210 kts 64°
2026-05-06 19:12 45.68897 8.79496 4093 ft 218 kts 44°
2026-05-06 19:12 45.70117 8.80805 4716 ft 217 kts 35°
2026-05-06 19:12 45.71339 8.82115 5244 ft 222 kts 38°
2026-05-06 19:13 45.72406 8.83758 5613 ft 234 kts 64°
2026-05-06 19:13 45.72859 8.85998 6079 ft 239 kts 87°
2026-05-06 19:13 45.72719 8.88410 6499 ft 249 kts 105°
2026-05-06 19:13 45.72077 8.90688 7185 ft 247 kts 129°
2026-05-06 19:14 45.70786 8.92290 7811 ft 248 kts 149°
2026-05-06 19:14 45.69399 8.93760 8518 ft 250 kts 141°
2026-05-06 19:14 45.68170 8.95533 8844 ft 251 kts 134°
2026-05-06 19:14 45.67047 8.97481 8873 ft 256 kts 130°
2026-05-06 19:15 45.65972 8.99502 8938 ft 256 kts 129°
2026-05-06 19:15 45.64908 9.01561 9465 ft 258 kts 129°
2026-05-06 19:15 45.63784 9.03595 9984 ft 268 kts 134°
2026-05-06 19:15 45.62484 9.05656 10183 ft 290 kts 136°
2026-05-06 19:16 45.61061 9.07849 10354 ft 312 kts 136°
2026-05-06 19:16 45.59532 9.10202 10537 ft 333 kts 136°
2026-05-06 19:16 45.57934 9.12677 11006 ft 342 kts 135°
2026-05-06 19:16 45.56322 9.15191 11686 ft 345 kts 135°
2026-05-06 19:17 45.54696 9.17733 12402 ft 348 kts 135°
2026-05-06 19:17 45.53060 9.20295 13118 ft 351 kts 135°
2026-05-06 19:17 45.51402 9.22892 13807 ft 355 kts 135°
2026-05-06 19:17 45.49729 9.25511 14460 ft 359 kts 136°
2026-05-06 19:18 45.48039 9.28155 15089 ft 364 kts 136°
2026-05-06 19:18 45.46325 9.30834 15735 ft 368 kts 136°
2026-05-06 19:18 45.44597 9.33532 16405 ft 371 kts 136°
2026-05-06 19:18 45.42849 9.36261 17042 ft 375 kts 136°
2026-05-06 19:19 45.41056 9.39054 17797 ft 379 kts 136°
2026-05-06 19:19 45.39266 9.41842 18416 ft 383 kts 136°
2026-05-06 19:19 45.37486 9.44611 18943 ft 386 kts 137°
2026-05-06 19:19 45.35638 9.47482 19486 ft 390 kts 137°
2026-05-06 19:20 45.33826 9.50295 20004 ft 393 kts 138°
2026-05-06 19:20 45.31948 9.53207 20540 ft 396 kts 138°
2026-05-06 19:20 45.30073 9.56112 21049 ft 400 kts 139°
2026-05-06 19:20 45.28213 9.58991 21559 ft 403 kts 139°
2026-05-06 19:21 45.26310 9.61934 22058 ft 406 kts 139°
2026-05-06 19:21 45.24394 9.64896 22549 ft 409 kts 140°
2026-05-06 19:21 45.22458 9.67882 22996 ft 412 kts 140°
2026-05-06 19:21 45.20510 9.70878 23489 ft 414 kts 141°
2026-05-06 19:22 45.18315 9.73404 23863 ft 400 kts 160°
2026-05-06 19:22 45.15799 9.74975 24329 ft 394 kts 165°
2026-05-06 19:22 45.13263 9.76488 24764 ft 396 kts 165°
2026-05-06 19:22 45.10718 9.78020 25161 ft 399 kts 165°
2026-05-06 19:23 45.08163 9.79573 25572 ft 401 kts 164°
2026-05-06 19:23 45.05598 9.81142 25993 ft 403 kts 164°
2026-05-06 19:23 45.03023 9.82724 26400 ft 404 kts 164°
2026-05-06 19:23 45.00438 9.84316 26788 ft 406 kts 164°
2026-05-06 19:24 44.97836 9.85917 27162 ft 408 kts 164°
2026-05-06 19:24 44.95224 9.87525 27518 ft 410 kts 165°
2026-05-06 19:24 44.92606 9.89136 27905 ft 412 kts 165°
2026-05-06 19:24 44.89984 9.90748 28271 ft 413 kts 165°
2026-05-06 19:25 44.87346 9.92367 28612 ft 415 kts 165°
2026-05-06 19:25 44.84686 9.93998 28906 ft 418 kts 165°
2026-05-06 19:25 44.82016 9.95632 29189 ft 420 kts 165°
2026-05-06 19:25 44.79330 9.97275 29517 ft 422 kts 165°
2026-05-06 19:26 44.76630 9.98925 29826 ft 424 kts 165°
2026-05-06 19:26 44.74058 10.00497 30146 ft 423 kts 165°
2026-05-06 19:26 44.71377 10.02138 30663 ft 418 kts 165°
2026-05-06 19:26 44.68718 10.03764 31086 ft 416 kts 165°
2026-05-06 19:27 44.66067 10.05379 31417 ft 415 kts 165°
2026-05-06 19:27 44.63416 10.06990 31747 ft 415 kts 165°
2026-05-06 19:27 44.60771 10.08596 32124 ft 413 kts 165°
2026-05-06 19:27 44.58135 10.10196 32501 ft 412 kts 165°
2026-05-06 19:28 44.55511 10.11787 32850 ft 411 kts 166°
2026-05-06 19:28 44.52879 10.13380 33037 ft 414 kts 165°
2026-05-06 19:28 44.50224 10.14981 33167 ft 417 kts 165°
2026-05-06 19:28 44.47566 10.16588 33529 ft 415 kts 165°
2026-05-06 19:29 44.44929 10.18185 33964 ft 411 kts 165°
2026-05-06 19:29 44.42302 10.19772 34223 ft 411 kts 165°
2026-05-06 19:29 44.39674 10.21356 34456 ft 411 kts 165°
2026-05-06 19:29 44.37054 10.22934 34751 ft 410 kts 165°
2026-05-06 19:30 44.34425 10.24513 34911 ft 412 kts 165°
2026-05-06 19:30 44.31781 10.26101 35101 ft 414 kts 165°
2026-05-06 19:30 44.29138 10.27688 35358 ft 414 kts 165°
2026-05-06 19:30 44.26496 10.29274 35580 ft 414 kts 165°
2026-05-06 19:31 44.23846 10.30863 35791 ft 415 kts 165°
2026-05-06 19:31 44.21193 10.32451 36009 ft 415 kts 165°
2026-05-06 19:31 44.15902 10.35583 36420 ft 415 kts 167°
2026-05-06 19:32 44.13195 10.36956 36546 ft 413 kts 168°
2026-05-06 19:32 44.10455 10.38230 36550 ft 417 kts 169°
2026-05-06 19:32 44.07689 10.39481 36665 ft 419 kts 169°
2026-05-06 19:32 44.04914 10.40743 36778 ft 421 kts 169°
2026-05-06 19:33 44.02131 10.42024 36911 ft 419 kts 168°
2026-05-06 19:33 43.99385 10.43305 36970 ft 417 kts 168°
2026-05-06 19:33 43.93880 10.45882 36957 ft 419 kts 168°
2026-05-06 19:34 43.88326 10.48482 36969 ft 424 kts 168°
2026-05-06 19:34 43.82716 10.51105 36976 ft 427 kts 168°
2026-05-06 19:35 43.77061 10.53743 36975 ft 430 kts 168°
2026-05-06 19:35 43.71457 10.56735 36933 ft 431 kts 164°
2026-05-06 19:36 43.65987 10.59899 36954 ft 424 kts 164°
2026-05-06 19:36 43.60547 10.63034 36960 ft 423 kts 165°
2026-05-06 19:37 43.55116 10.66128 36952 ft 422 kts 165°
2026-05-06 19:37 43.50607 10.68679 36947 ft 422 kts 165°
2026-05-06 19:38 43.44256 10.72262 36952 ft 422 kts 165°
2026-05-06 19:38 43.38818 10.75323 36950 ft 422 kts 165°
2026-05-06 19:39 43.33376 10.78382 36980 ft 423 kts 165°
2026-05-06 19:39 43.27905 10.81449 36956 ft 426 kts 165°
2026-05-06 19:40 43.22402 10.84530 36954 ft 428 kts 165°
2026-05-06 19:40 43.16880 10.87615 36964 ft 430 kts 165°
2026-05-06 19:41 43.11332 10.90710 36968 ft 431 kts 165°
2026-05-06 19:41 43.05768 10.93808 36960 ft 431 kts 165°
2026-05-06 19:42 43.00208 10.96899 36956 ft 431 kts 165°
2026-05-06 19:42 42.94679 10.99965 36957 ft 429 kts 165°
2026-05-06 19:43 42.89334 11.02925 36949 ft 428 kts 165°
2026-05-06 19:43 42.83834 11.05963 36934 ft 425 kts 165°
2026-05-06 19:44 42.78351 11.08985 36937 ft 424 kts 165°
2026-05-06 19:44 42.72895 11.11987 36939 ft 423 kts 165°
2026-05-06 19:45 42.67443 11.14980 36924 ft 422 kts 165°
2026-05-06 19:45 42.62000 11.17962 36940 ft 422 kts 165°
2026-05-06 19:46 42.56555 11.20941 36949 ft 423 kts 165°
2026-05-06 19:46 42.51086 11.23926 36962 ft 424 kts 165°
2026-05-06 19:47 42.45613 11.26909 36957 ft 425 kts 165°
2026-05-06 19:47 42.40122 11.29895 36961 ft 426 kts 165°
2026-05-06 19:48 42.34626 11.32880 36967 ft 426 kts 165°
2026-05-06 19:48 42.29126 11.35862 36984 ft 426 kts 165°
2026-05-06 19:49 42.24514 11.38357 36967 ft 426 kts 165°
2026-05-06 19:49 42.19007 11.41331 36970 ft 426 kts 165°
2026-05-06 19:50 42.13503 11.44298 36975 ft 426 kts 165°
2026-05-06 19:50 42.07997 11.47261 36971 ft 426 kts 165°
2026-05-06 19:51 42.02498 11.50214 36955 ft 425 kts 165°
2026-05-06 19:51 41.97018 11.53152 36977 ft 424 kts 165°
2026-05-06 19:52 41.91533 11.56087 36973 ft 424 kts 165°
2026-05-06 19:52 41.86057 11.59012 36980 ft 423 kts 165°
2026-05-06 19:53 41.80584 11.61928 36956 ft 423 kts 165°
2026-05-06 19:53 41.75113 11.64840 36976 ft 423 kts 165°
2026-05-06 19:54 41.69651 11.67740 36962 ft 423 kts 165°
2026-05-06 19:54 41.64185 11.70638 36980 ft 423 kts 165°
2026-05-06 19:55 41.58709 11.73535 36964 ft 424 kts 165°
2026-05-06 19:55 41.53219 11.76434 36986 ft 425 kts 165°
2026-05-06 19:56 41.47716 11.79335 36994 ft 426 kts 165°
2026-05-06 19:56 41.42221 11.82226 36992 ft 428 kts 165°
2026-05-06 19:57 41.36640 11.85158 36965 ft 429 kts 165°
2026-05-06 19:57 41.31079 11.88074 36988 ft 430 kts 165°
2026-05-06 19:58 41.25499 11.90995 36999 ft 431 kts 165°
2026-05-06 19:58 41.19909 11.93915 37002 ft 432 kts 165°
2026-05-06 19:59 41.14342 11.96818 36987 ft 433 kts 165°
2026-05-06 19:59 41.08700 11.99756 37001 ft 433 kts 165°
2026-05-06 20:00 41.03268 12.02577 37009 ft 433 kts 165°
2026-05-06 20:00 40.97673 12.05479 36998 ft 432 kts 165°
2026-05-06 20:01 40.92084 12.08374 36992 ft 431 kts 164°
2026-05-06 20:01 40.86538 12.11240 37002 ft 430 kts 164°
2026-05-06 20:02 40.80971 12.14111 37013 ft 429 kts 165°
2026-05-06 20:02 40.75408 12.16975 37013 ft 429 kts 165°
2026-05-06 20:03 40.69857 12.19828 36989 ft 428 kts 164°
2026-05-06 20:03 40.64314 12.22671 37015 ft 427 kts 164°
2026-05-06 20:04 40.58774 12.25508 37020 ft 427 kts 164°
2026-05-06 20:04 40.53227 12.28343 37016 ft 427 kts 164°
2026-05-06 20:05 40.47685 12.31171 37021 ft 428 kts 164°
2026-05-06 20:05 40.42139 12.33996 37011 ft 428 kts 164°
2026-05-06 20:06 40.36587 12.36819 37020 ft 428 kts 164°
2026-05-06 20:06 40.31024 12.39642 37020 ft 429 kts 164°
2026-05-06 20:07 40.25455 12.42463 37016 ft 429 kts 164°
2026-05-06 20:07 40.19884 12.45282 37016 ft 429 kts 164°
2026-05-06 20:08 40.14304 12.48099 37020 ft 430 kts 165°
2026-05-06 20:08 40.08723 12.50911 37020 ft 430 kts 165°
2026-05-06 20:09 40.03135 12.53723 37020 ft 430 kts 165°
2026-05-06 20:09 39.97552 12.56527 37019 ft 430 kts 165°
2026-05-06 20:10 39.91960 12.59331 37020 ft 430 kts 165°
2026-05-06 20:10 39.86372 12.62128 37017 ft 430 kts 165°
2026-05-06 20:11 39.80789 12.64917 37019 ft 430 kts 165°
2026-05-06 20:11 39.75214 12.67697 37003 ft 429 kts 165°
2026-05-06 20:12 39.69642 12.70472 37016 ft 428 kts 165°
2026-05-06 20:12 39.64114 12.73219 37017 ft 428 kts 165°
2026-05-06 20:13 39.58554 12.75977 37015 ft 428 kts 165°
2026-05-06 20:13 39.52995 12.78731 37002 ft 427 kts 165°
2026-05-06 20:14 39.47432 12.81481 37014 ft 428 kts 165°
2026-05-06 20:14 39.41861 12.84230 37024 ft 429 kts 165°
2026-05-06 20:15 39.36269 12.86985 37014 ft 431 kts 165°
2026-05-06 20:15 39.30659 12.89745 36986 ft 432 kts 165°
2026-05-06 20:16 39.25031 12.92509 37008 ft 433 kts 166°
2026-05-06 20:16 39.19385 12.95276 37017 ft 435 kts 166°
2026-05-06 20:17 39.13725 12.98047 37011 ft 436 kts 166°
2026-05-06 20:17 39.08214 13.00740 37005 ft 437 kts 166°
2026-05-06 20:18 39.02518 13.03518 36999 ft 438 kts 166°
2026-05-06 20:18 38.99684 13.04899 36786 ft 438 kts 166°
2026-05-06 20:18 38.96855 13.06278 36515 ft 431 kts 166°
2026-05-06 20:19 38.94074 13.07634 36251 ft 424 kts 166°
2026-05-06 20:19 38.91334 13.08967 35989 ft 418 kts 166°
2026-05-06 20:19 38.88624 13.10282 35734 ft 413 kts 166°
2026-05-06 20:19 38.85957 13.11578 35490 ft 409 kts 165°
2026-05-06 20:20 38.83378 13.12938 35230 ft 407 kts 163°
2026-05-06 20:20 38.80781 13.14407 34959 ft 410 kts 162°
2026-05-06 20:20 38.78168 13.15917 34736 ft 414 kts 162°
2026-05-06 20:20 38.75545 13.17440 34500 ft 413 kts 161°
2026-05-06 20:21 38.72938 13.18950 34248 ft 409 kts 161°
2026-05-06 20:21 38.70356 13.20438 34008 ft 405 kts 161°
2026-05-06 20:21 38.67798 13.21903 33715 ft 400 kts 161°
2026-05-06 20:21 38.65277 13.23342 33408 ft 394 kts 161°
2026-05-06 20:22 38.62797 13.24752 33037 ft 390 kts 161°
2026-05-06 20:22 38.60325 13.26153 32682 ft 387 kts 161°
2026-05-06 20:22 38.57876 13.27540 32303 ft 384 kts 162°
2026-05-06 20:22 38.55443 13.28916 31979 ft 380 kts 161°
2026-05-06 20:23 38.53035 13.30277 31612 ft 377 kts 161°
2026-05-06 20:23 38.50647 13.31626 31275 ft 374 kts 161°
2026-05-06 20:23 38.48274 13.32966 30941 ft 371 kts 161°
2026-05-06 20:23 38.45924 13.34292 30608 ft 368 kts 161°
2026-05-06 20:24 38.43585 13.35610 30281 ft 366 kts 161°
2026-05-06 20:24 38.41267 13.36917 29937 ft 363 kts 161°
2026-05-06 20:24 38.38965 13.38213 29561 ft 360 kts 161°
2026-05-06 20:24 38.36693 13.39493 29227 ft 355 kts 161°
2026-05-06 20:25 38.34442 13.40759 28865 ft 351 kts 161°
2026-05-06 20:25 38.32218 13.42009 28539 ft 348 kts 161°
2026-05-06 20:25 38.30015 13.43247 28194 ft 344 kts 161°
2026-05-06 20:25 38.27835 13.44470 27875 ft 341 kts 161°
2026-05-06 20:26 38.25674 13.45682 27529 ft 338 kts 161°
2026-05-06 20:26 38.23528 13.46885 27220 ft 336 kts 160°
2026-05-06 20:26 38.21396 13.48079 26885 ft 335 kts 160°
2026-05-06 20:26 38.19268 13.49269 26565 ft 334 kts 160°
2026-05-06 20:27 38.17120 13.50468 26250 ft 341 kts 160°
2026-05-06 20:27 38.14911 13.51699 25931 ft 351 kts 160°
2026-05-06 20:27 38.12675 13.52948 25577 ft 351 kts 160°
2026-05-06 20:27 38.10448 13.54194 25220 ft 349 kts 160°
2026-05-06 20:28 38.08237 13.55430 24887 ft 346 kts 160°
2026-05-06 20:28 38.06040 13.56656 24558 ft 344 kts 160°
2026-05-06 20:28 38.03854 13.57875 24230 ft 342 kts 160°
2026-05-06 20:28 38.01716 13.59067 23908 ft 339 kts 160°
2026-05-06 20:29 37.99567 13.60263 23588 ft 337 kts 160°
2026-05-06 20:29 37.97429 13.61452 23207 ft 335 kts 160°
2026-05-06 20:29 37.95298 13.62638 22850 ft 333 kts 160°
2026-05-06 20:29 37.93184 13.63812 22509 ft 330 kts 160°
2026-05-06 20:30 37.91086 13.64977 22185 ft 328 kts 161°
2026-05-06 20:30 37.87448 13.68403 21577 ft 335 kts 130°
2026-05-06 20:30 37.86356 13.71020 21278 ft 338 kts 117°
2026-05-06 20:31 37.85489 13.73780 20965 ft 337 kts 116°
2026-05-06 20:31 37.84650 13.76542 20641 ft 336 kts 116°
2026-05-06 20:31 37.83810 13.79295 20319 ft 335 kts 116°
2026-05-06 20:31 37.82964 13.82029 19989 ft 333 kts 117°
2026-05-06 20:32 37.82115 13.84741 19675 ft 330 kts 117°
2026-05-06 20:32 37.81265 13.87434 19349 ft 330 kts 117°
2026-05-06 20:32 37.80409 13.90131 19044 ft 330 kts 117°
2026-05-06 20:32 37.79844 13.91912 18817 ft 331 kts 117°
2026-05-06 20:33 37.78986 13.94608 18506 ft 330 kts 117°
2026-05-06 20:33 37.78127 13.97302 18154 ft 331 kts 117°
2026-05-06 20:33 37.77268 13.99995 17808 ft 330 kts 118°
2026-05-06 20:33 37.76462 14.02502 17514 ft 329 kts 118°
2026-05-06 20:34 37.75596 14.05178 17181 ft 329 kts 118°
2026-05-06 20:34 37.74730 14.07849 16872 ft 327 kts 118°
2026-05-06 20:34 37.73869 14.10505 16553 ft 327 kts 118°
2026-05-06 20:34 37.73008 14.13157 16231 ft 325 kts 119°
2026-05-06 20:35 37.72151 14.15795 15928 ft 325 kts 119°
2026-05-06 20:35 37.71294 14.18433 15606 ft 324 kts 120°
2026-05-06 20:35 37.70438 14.21063 15305 ft 323 kts 120°
2026-05-06 20:35 37.69344 14.23468 14913 ft 311 kts 140°
2026-05-06 20:36 37.67783 14.25313 14617 ft 305 kts 146°
2026-05-06 20:36 37.66192 14.27063 14328 ft 303 kts 146°
2026-05-06 20:36 37.64615 14.28807 14056 ft 300 kts 146°
2026-05-06 20:36 37.63068 14.30543 13695 ft 296 kts 146°
2026-05-06 20:37 37.61537 14.32276 13225 ft 294 kts 145°
2026-05-06 20:37 37.60025 14.33999 12782 ft 292 kts 145°
2026-05-06 20:37 37.58535 14.35706 12424 ft 286 kts 144°
2026-05-06 20:37 37.57079 14.37374 12051 ft 280 kts 144°
2026-05-06 20:38 37.55661 14.39005 11794 ft 271 kts 144°
2026-05-06 20:38 37.54289 14.40582 11542 ft 263 kts 144°
2026-05-06 20:38 37.52967 14.42102 11362 ft 253 kts 144°
2026-05-06 20:38 37.51661 14.43514 11131 ft 240 kts 155°
2026-05-06 20:39 37.50158 14.44180 10851 ft 225 kts 174°
2026-05-06 20:39 37.48619 14.44430 10530 ft 223 kts 177°
2026-05-06 20:39 37.47076 14.44630 10197 ft 223 kts 176°
2026-05-06 20:39 37.45539 14.44833 9878 ft 222 kts 176°
2026-05-06 20:40 37.44014 14.45081 9536 ft 221 kts 167°
2026-05-06 20:40 37.42693 14.46068 9178 ft 228 kts 136°
2026-05-06 20:40 37.41876 14.47805 8845 ft 237 kts 112°
2026-05-06 20:40 37.41729 14.49889 8508 ft 244 kts 90°
2026-05-06 20:41 37.41918 14.52012 8196 ft 243 kts 88°
2026-05-06 20:41 37.42117 14.54121 7895 ft 241 kts 88°
2026-05-06 20:41 37.42311 14.56203 7586 ft 239 kts 88°
2026-05-06 20:41 37.42502 14.58269 7272 ft 237 kts 88°
2026-05-06 20:42 37.42688 14.60336 7034 ft 237 kts 88°
2026-05-06 20:42 37.42871 14.62391 6806 ft 236 kts 89°
2026-05-06 20:42 37.43053 14.64450 6531 ft 238 kts 88°
2026-05-06 20:42 37.43236 14.66535 6187 ft 241 kts 88°
2026-05-06 20:43 37.43447 14.68639 5745 ft 244 kts 85°
2026-05-06 20:43 37.43702 14.70736 5393 ft 241 kts 86°
2026-05-06 20:43 37.43909 14.72815 5067 ft 237 kts 88°
2026-05-06 20:43 37.44082 14.74855 4754 ft 232 kts 88°
2026-05-06 20:44 37.44243 14.76857 4448 ft 228 kts 88°
2026-05-06 20:44 37.44400 14.78820 4144 ft 224 kts 87°
2026-05-06 20:44 37.44555 14.80752 3846 ft 220 kts 87°
2026-05-06 20:44 37.44708 14.82645 3555 ft 215 kts 86°
2026-05-06 20:45 37.44859 14.84500 3285 ft 210 kts 86°
2026-05-06 20:45 37.45006 14.86308 3016 ft 205 kts 86°
2026-05-06 20:45 37.45148 14.88065 2739 ft 199 kts 85°
2026-05-06 20:45 37.45287 14.89777 2475 ft 194 kts 84°
2026-05-06 20:46 37.45424 14.91429 2226 ft 186 kts 85°
2026-05-06 20:46 37.45553 14.93014 1975 ft 177 kts 85°
2026-05-06 20:46 37.45675 14.94499 1745 ft 164 kts 86°
2026-05-06 20:46 37.45788 14.95881 1531 ft 154 kts 84°
2026-05-06 20:47 37.45894 14.97166 1326 ft 143 kts 86°
2026-05-06 20:47 37.45993 14.98391 1150 ft 141 kts 85°
2026-05-06 20:47 37.46096 14.99626 960 ft 142 kts 85°
2026-05-06 20:47 37.46179 15.00768 798 ft 140 kts 83°
2026-05-06 20:48 37.46303 15.01986 598 ft 141 kts 81°
2026-05-06 20:48 37.46395 15.03191 404 ft 136 kts 82°
2026-05-06 20:48 37.46492 15.04349 241 ft 131 kts 81°
2026-05-06 20:48 37.46581 15.05482 59 ft 129 kts 81°
2026-05-06 20:49 37.46670 15.06498 32 ft 97 kts 84°
2026-05-06 20:49 37.46725 15.07161 24 ft 57 kts 83°
2026-05-06 20:49 37.46769 15.07574 26 ft 41 kts 74°
2026-05-06 20:49 37.46865 15.07785 22 ft 16 kts 46°
2026-05-06 20:50 37.46936 15.07748 24 ft 12 kts 269°
2026-05-06 20:50 37.46928 15.07642 26 ft 12 kts 264°
2026-05-06 20:50 37.46920 15.07538 30 ft 12 kts 264°
2026-05-06 20:50 37.46909 15.07408 26 ft 18 kts 263°
2026-05-06 20:51 37.46893 15.07239 28 ft 20 kts 263°
2026-05-06 20:51 37.46879 15.07072 27 ft 19 kts 264°
2026-05-06 20:51 37.46865 15.06893 27 ft 22 kts 264°
2026-05-06 20:51 37.46850 15.06711 27 ft 20 kts 264°
2026-05-06 20:52 37.46843 15.06619 27 ft 0 kts 265°
2026-05-06 20:52 37.46845 15.06617 27 ft 2 kts 289°
2026-05-06 20:52 37.46876 15.06602 26 ft 5 kts 20°
2026-05-06 20:52 37.46909 15.06618 30 ft 5 kts 19°
2026-05-06 20:53 37.46920 15.06623 28 ft 0 kts 19°
2026-05-06 21:10 37.46914 15.06620 26 ft 2 kts 18°
2026-05-06 21:10 37.46898 15.06615 31 ft 2 kts 14°
2026-05-06 21:10 37.46882 15.06610 26 ft 2 kts